Location: Unspecified
(41.1637°N, 24.2901°E)
Time: 11:10:07
(UTC+01:00)

ISS - Pass Details

Date: 23 November 2023
Orbit: 415 x 417 km, 51.6° (Epoch: 06 December)

Event Time Altitude Azimuth Distance (km) Brightness Sun altitude
Rises 18:17:49 0° 299° (WNW) 2,362 0.9 -25.9°
Reaches altitude 10° 18:20:44 10° 326° (NW) 1,499 -0.6 -26.5°
Enters shadow 18:20:46 10° 327° (NNW) 1,492 -0.7 -26.5°
